Tracking 23762 objects as of 21-Oct-2021
HD Live streaming from Space Station
objects crossing your sky now

ARIANE 42P DEB

Track ARIANE 42P DEB now!
10-day predictions


NORAD ID: 44514
Int'l Code: 1992-052M
Perigee: 1,118.5 km
Apogee: 1,517.5 km
Inclination: 65.8 °
Period: 111.8 minutes
Semi major axis: 7688 km
RCS: Unknown
Launch date: August 10, 1992
Source: France (FR)
Launch site: FRENCH GUIANA (FRGUI)

Note: This is SATELLITE DEBRIS
aabbcc
Your satellite tracking list
Your tracking list is empty




NASA's NSSDC Master Catalog

Two Line Element Set (TLE):
1 44514U 92052M   21291.74266408  .00003518  00000-0  12215-1 0  9997
2 44514  65.7881 170.1685 0259473   1.1384 359.0169 12.87650608101817
Source of the keplerian elements: AFSPC